period_start,C,m1,H,J0,J1,J2,J3,J4,J5,JA,JB,JC,JD,JJ,JK,JN,#
2018-08-11 00:02:17,0.06,0.80,0.00,29.87,33.58,35.93,13.57,46.89,1013.14,1999.83,3114.48,2812.99,3222.89,599.92,580.46,7.79,0000 0000 0000 0000 000000
2018-08-11 00:07:18,0.08,0.80,0.00,29.89,33.60,35.94,13.60,46.87,1013.18,1999.85,3112.94,2812.04,3221.73,600.05,580.57,7.84,0000 0000 0000 0000 000000
2018-08-11 00:12:19,0.08,0.81,0.00,29.91,33.60,35.94,13.53,46.83,1013.17,1999.84,3111.37,2811.02,3220.43,600.12,580.60,7.89,0000 0000 0000 0000 000000
2018-08-11 00:17:21,0.15,0.81,0.00,29.93,33.61,35.96,13.54,46.79,1013.19,1999.81,3108.98,2809.36,3218.49,600.08,580.56,7.94,0000 0000 0000 0000 000000
2018-08-11 00:22:22,0.21,0.82,0.00,29.96,33.62,35.97,13.53,46.82,1013.14,1999.61,3104.81,2806.33,3214.88,600.02,580.36,7.99,0000 0000 0000 0000 000000
2018-08-11 00:27:24,0.12,0.83,0.00,29.98,33.62,35.98,13.58,46.85,1012.99,1999.46,3101.45,2804.07,3212.22,600.41,580.53,8.04,0000 0000 0000 0000 000000
2018-08-11 00:32:25,0.11,0.84,0.00,30.00,33.65,35.99,13.59,46.83,1013.14,1999.17,3098.64,2802.18,3210.01,600.12,580.39,8.09,0000 0000 0000 0000 000000
2018-08-11 00:37:26,0.19,0.85,0.00,30.03,33.65,36.01,13.57,46.92,1013.13,1999.10,3094.98,2799.48,3206.74,600.44,580.64,8.15,0000 0000 0000 0000 000000
2018-08-11 00:42:27,0.08,0.85,0.00,30.05,33.67,36.01,13.50,46.86,1012.92,1999.04,3092.97,2798.01,3204.99,599.81,579.89,8.20,0000 0000 0000 0000 000000
2018-08-11 00:47:29,0.10,0.86,0.00,30.08,33.67,36.03,13.50,46.81,1012.86,1999.04,3091.10,2796.75,3203.48,599.79,579.76,8.25,0000 0000 0000 0000 000000
2018-08-11 00:52:30,0.08,0.86,0.00,30.11,33.70,36.05,13.51,46.77,1012.81,1999.00,3089.28,2795.57,3201.94,600.25,580.13,8.30,0000 0000 0000 0000 000000
2018-08-11 00:57:32,0.08,0.87,0.00,30.13,33.70,36.05,13.56,46.80,1012.76,1999.00,3087.59,2794.46,3200.61,599.84,579.54,8.35,0000 0000 0000 0000 000000
2018-08-11 01:02:33,0.08,0.87,0.00,30.15,33.72,36.07,13.57,46.84,1012.73,1999.00,3085.76,2793.32,3199.17,600.42,579.92,8.40,0000 0000 0000 0000 000000
2018-08-11 01:07:34,0.08,0.88,0.00,30.18,33.74,36.09,13.46,46.73,1012.73,1999.00,3084.03,2792.19,3197.83,599.58,579.30,8.45,0000 0000 0000 0000 000000
2018-08-11 01:12:35,0.10,0.88,0.00,30.21,33.75,36.10,13.52,46.76,1012.73,1999.00,3082.11,2790.88,3196.36,600.07,579.70,8.50,0000 0000 0000 0000 000000
2018-08-11 01:17:37,0.11,0.88,0.00,30.25,33.77,36.12,13.52,46.88,1012.74,1999.00,3080.05,2789.56,3194.66,599.87,579.50,8.55,0000 0000 0000 0000 000000
2018-08-11 01:22:38,0.09,0.89,0.00,30.27,33.78,36.13,13.42,46.73,1012.73,1998.98,3077.92,2788.15,3192.91,599.74,579.33,8.60,0000 0000 0000 0000 000000
2018-08-11 01:27:39,0.09,0.90,0.00,30.30,33.80,36.16,13.55,46.77,1012.72,1998.97,3076.03,2786.88,3191.46,600.13,579.52,8.65,0000 0000 0000 0000 000000
2018-08-11 01:32:40,0.09,0.90,0.00,30.33,33.82,36.17,13.53,46.82,1012.72,1998.93,3074.03,2785.61,3189.82,599.97,579.41,8.70,0000 0000 0000 0000 000000
2018-08-11 01:37:41,0.07,0.91,0.00,30.36,33.84,36.18,13.56,46.78,1012.73,1998.76,3072.01,2784.30,3188.21,600.04,579.44,8.75,0000 0000 0000 0000 000000
2018-08-11 01:42:42,0.07,0.91,0.00,30.39,33.85,36.21,13.50,46.78,1012.72,1998.46,3070.11,2782.91,3186.53,599.82,579.14,8.80,0000 0000 0000 0000 000000
2018-08-11 01:47:43,0.08,0.91,0.00,30.42,33.87,36.23,13.48,46.81,1012.72,1998.17,3068.09,2781.60,3184.86,599.99,579.20,8.85,0000 0000 0000 0000 000000
2018-08-11 01:52:45,0.08,0.92,0.00,30.46,33.90,36.25,13.45,46.65,1012.72,1998.08,3066.07,2780.26,3183.30,599.62,578.80,8.90,0000 0000 0000 0000 000000
2018-08-11 01:57:46,0.10,0.92,0.00,30.49,33.91,36.27,13.46,46.61,1012.71,1998.02,3064.04,2778.87,3181.68,599.81,578.83,8.95,0000 0000 0000 0000 000000
2018-08-11 02:02:47,0.09,0.93,0.00,30.52,33.94,36.29,13.57,46.61,1012.71,1998.00,3062.18,2777.62,3180.10,600.22,579.26,9.00,0000 0000 0000 0000 000000
2018-08-11 02:07:49,0.09,0.93,0.00,30.55,33.96,36.31,13.42,46.64,1012.71,1998.00,3060.35,2776.43,3178.61,599.75,578.70,9.05,0000 0000 0000 0000 000000
2018-08-11 02:12:50,0.08,0.94,0.00,30.58,33.98,36.34,13.49,46.57,1012.71,1998.00,3058.59,2775.34,3177.20,600.46,579.34,9.10,0000 0000 0000 0000 000000
2018-08-11 02:17:51,0.19,0.94,0.00,30.61,34.00,36.36,13.47,46.58,1012.71,1997.99,3055.78,2772.92,3174.34,600.12,578.90,9.15,0000 0000 0000 0000 000000
2018-08-11 02:22:52,0.10,0.95,0.00,30.64,34.02,36.38,13.47,46.79,1012.71,1997.95,3053.42,2771.27,3172.28,600.19,579.04,9.20,0000 0000 0000 0000 000000
2018-08-11 02:27:54,0.14,0.96,0.00,30.68,34.05,36.40,13.52,46.82,1012.71,1997.86,3050.68,2769.08,3169.64,599.95,578.72,9.25,0000 0000 0000 0000 000000
2018-08-11 02:32:55,0.05,0.96,0.00,30.71,34.07,36.43,13.49,46.78,1012.71,1997.47,3048.72,2767.95,3168.13,599.85,578.56,9.30,0000 0000 0000 0000 000000
2018-08-11 02:37:56,0.08,0.96,0.00,30.75,34.09,36.46,13.53,46.67,1012.71,1997.15,3046.70,2766.69,3166.55,600.35,578.93,9.35,0000 0000 0000 0000 000000
2018-08-11 02:42:57,0.08,0.97,0.00,30.79,34.12,36.48,13.43,46.57,1012.71,1997.07,3044.75,2765.57,3165.08,599.99,578.51,9.40,0000 0000 0000 0000 000000
2018-08-11 02:47:59,0.08,0.97,0.00,30.81,34.14,36.51,13.48,46.55,1012.71,1997.02,3043.01,2764.46,3163.61,600.03,578.61,9.45,0000 0000 0000 0000 000000
2018-08-11 02:53:00,0.08,0.98,0.00,30.85,34.17,36.53,13.51,46.68,1012.71,1997.00,3041.32,2763.43,3162.29,600.16,578.50,9.50,0000 0000 0000 0000 000000
2018-08-11 02:58:02,0.09,0.98,0.00,30.88,34.19,36.56,13.43,46.62,1012.71,1997.00,3039.65,2762.30,3160.80,599.80,578.12,9.55,0000 0000 0000 0000 000000
2018-08-11 03:03:03,0.08,0.99,0.00,30.91,34.22,36.59,13.43,46.59,1012.71,1996.99,3037.87,2761.23,3159.46,599.90,578.19,9.60,0000 0000 0000 0000 000000
2018-08-11 03:08:04,0.07,0.99,0.00,30.94,34.25,36.61,13.43,46.63,1012.71,1996.90,3036.22,2760.11,3157.98,600.10,578.34,9.65,0000 0000 0000 0000 000000
2018-08-11 03:13:05,0.07,0.99,0.00,30.98,34.27,36.63,13.50,46.62,1012.71,1996.77,3034.56,2759.07,3156.61,600.15,578.35,9.70,0000 0000 0000 0000 000000
2018-08-11 03:18:07,0.04,1.00,0.00,31.01,34.30,36.66,13.39,46.66,1012.71,1996.37,3032.84,2757.88,3155.23,599.86,577.97,9.75,0000 0000 0000 0000 000000
2018-08-11 03:23:08,0.07,1.00,0.00,31.05,34.33,36.69,13.44,46.61,1012.71,1996.06,3031.18,2756.77,3153.74,599.84,577.91,9.80,0000 0000 0000 0000 000000
2018-08-11 03:28:09,0.08,1.00,0.00,31.09,34.36,36.72,13.44,46.55,1012.71,1996.01,3029.53,2755.71,3152.48,599.93,577.89,9.85,0000 0000 0000 0000 000000
2018-08-11 03:33:10,0.08,1.01,0.00,31.12,34.39,36.75,13.45,46.58,1012.71,1996.00,3027.98,2754.62,3151.09,600.02,578.01,9.90,0000 0000 0000 0000 000000
2018-08-11 03:38:12,0.08,1.01,0.00,31.15,34.42,36.77,13.51,46.63,1012.71,1995.99,3026.48,2753.64,3149.75,600.17,577.93,9.95,0000 0000 0000 0000 000000
2018-08-11 03:43:13,0.08,1.02,0.00,31.19,34.45,36.80,13.39,46.61,1012.71,1995.92,3024.79,2752.54,3148.42,599.91,577.93,10.00,0000 0000 0000 0000 000000
2018-08-11 03:48:14,0.07,1.02,0.00,31.22,34.48,36.82,13.44,46.67,1012.71,1995.76,3023.07,2751.46,3146.93,599.89,577.72,10.05,0000 0000 0000 0000 000000
2018-08-11 03:53:15,0.06,1.02,0.00,31.26,34.51,36.86,13.48,46.68,1012.71,1995.52,3021.32,2750.48,3145.58,600.40,578.05,10.10,0000 0000 0000 0000 000000
2018-08-11 03:58:17,0.04,1.03,0.00,31.28,34.54,36.88,13.45,46.65,1012.70,1995.13,3019.63,2749.34,3144.18,600.12,577.75,10.15,0000 0000 0000 0000 000000
2018-08-11 04:03:18,0.07,1.03,0.00,31.31,34.57,36.92,13.40,46.64,1012.71,1995.06,3018.18,2748.37,3142.93,599.78,577.30,10.20,0000 0000 0000 0000 000000
2018-08-11 04:08:19,0.08,1.03,0.00,31.34,34.59,36.95,13.46,46.73,1012.71,1995.00,3016.65,2747.41,3141.65,600.21,577.64,10.25,0000 0000 0000 0000 000000
2018-08-11 04:13:20,0.07,1.04,0.00,31.38,34.62,36.98,13.45,46.85,1012.68,1994.99,3015.13,2746.40,3140.40,599.88,577.31,10.30,0000 0000 0000 0000 000000
2018-08-11 04:18:22,0.07,1.04,0.00,31.41,34.65,37.00,13.48,46.77,1012.66,1994.95,3013.66,2745.45,3139.10,600.19,577.46,10.35,0000 0000 0000 0000 000000
2018-08-11 04:23:23,0.04,1.04,0.00,31.45,34.68,37.04,13.40,46.80,1012.70,1994.60,3011.84,2744.22,3137.51,599.70,577.07,10.41,0000 0000 0000 0000 000000
2018-08-11 04:28:24,0.11,1.05,0.00,31.49,34.71,37.07,13.40,46.76,1012.70,1994.14,3009.08,2742.59,3135.34,599.99,577.22,10.46,0000 0000 0000 0000 000000
2018-08-11 04:33:25,0.18,1.06,0.00,31.51,34.74,37.09,13.42,46.77,1012.63,1994.00,3005.45,2740.43,3132.59,599.81,576.92,10.51,0000 0000 0000 0000 000000
2018-08-11 04:38:26,0.23,1.07,0.00,31.55,34.77,37.13,13.43,46.82,1012.60,1993.99,3000.75,2737.81,3128.93,600.19,577.19,10.56,0000 0000 0000 0000 000000
2018-08-11 04:43:28,0.24,1.08,0.00,31.59,34.81,37.15,13.46,46.69,1012.67,1993.96,2995.59,2735.01,3125.08,600.03,577.04,10.61,0000 0000 0000 0000 000000
2018-08-11 04:48:29,0.23,1.09,0.00,31.62,34.84,37.19,13.42,46.77,1012.71,1993.74,2989.96,2731.95,3120.83,599.99,576.82,10.66,0000 0000 0000 0000 000000
2018-08-11 04:53:30,0.29,1.10,0.00,31.65,34.87,37.22,13.37,46.80,1012.71,1993.20,2983.30,2728.26,3115.72,599.76,576.67,10.71,0000 0000 0000 0000 000000
2018-08-11 04:58:31,0.65,1.13,0.00,31.68,34.90,37.25,13.42,46.77,1012.70,1993.04,2972.17,2720.82,3106.09,600.03,576.91,10.76,0000 0000 0000 0000 000000
2018-08-11 05:03:33,0.63,1.16,0.00,31.71,34.93,37.28,13.48,47.03,1012.63,1993.00,2959.76,2714.08,3096.83,600.44,577.10,10.81,0000 0000 0000 0000 000000
2018-08-11 05:08:34,0.74,1.20,0.00,31.74,34.96,37.31,13.51,47.37,1012.60,1992.96,2944.63,2706.10,3085.77,600.20,576.75,10.86,0000 0000 0000 0000 000000
2018-08-11 05:13:35,0.73,1.23,0.00,31.77,34.99,37.34,13.34,47.10,1012.46,1992.52,2928.10,2697.33,3073.69,599.79,576.33,10.91,0000 0000 0000 0000 000000
2018-08-11 05:18:36,0.88,1.28,0.00,31.80,35.02,37.37,13.43,47.31,1012.46,1992.05,2910.27,2687.88,3060.72,599.81,576.34,10.96,0000 0000 0000 0000 000000
2018-08-11 05:23:38,1.14,1.33,0.00,31.83,35.06,37.40,13.48,47.31,1012.60,1992.00,2888.20,2676.21,3044.60,600.20,576.56,11.01,0000 0000 0000 0000 000000
2018-08-11 05:28:39,1.27,1.39,0.27,31.86,35.09,37.44,13.38,47.29,1012.65,1991.99,2862.89,2662.67,3026.13,599.83,576.29,11.06,0000 0000 0000 0000 000000
2018-08-11 05:33:40,1.37,1.46,1.00,31.90,35.12,37.47,13.41,47.52,1012.66,1991.91,2835.73,2648.11,3006.50,599.85,576.26,11.11,0000 0000 0000 0000 000000
2018-08-11 05:38:41,1.46,1.53,1.00,31.93,35.15,37.50,13.44,47.65,1012.69,1991.38,2806.46,2632.32,2985.21,600.20,576.54,11.16,0000 0000 0000 0000 000000
2018-08-11 05:43:43,1.64,1.61,1.00,31.96,35.18,37.53,13.48,47.77,1012.71,1991.04,2774.63,2615.51,2962.16,600.06,576.47,11.21,0000 0000 0000 0000 000000
2018-08-11 05:48:44,1.66,1.69,1.00,31.99,35.21,37.56,13.34,47.93,1012.69,1991.00,2742.58,2598.32,2938.96,599.72,575.98,11.26,0000 0000 0000 0000 000000
2018-08-11 05:53:46,1.60,1.77,1.00,32.03,35.25,37.59,13.38,48.07,1012.64,1990.97,2711.92,2581.88,2916.93,599.89,576.03,11.31,0000 0000 0000 0000 000000
2018-08-11 05:58:47,1.49,1.85,1.30,32.06,35.28,37.63,13.48,48.13,1012.58,1990.72,2683.26,2566.50,2896.26,600.06,576.14,11.36,0000 0000 0000 0000 000000
2018-08-11 06:03:48,1.36,1.92,2.00,32.10,35.31,37.65,13.47,48.27,1012.59,1990.29,2656.79,2552.47,2877.40,599.90,575.84,11.41,0000 0000 0000 0000 000000
2018-08-11 06:08:50,1.31,1.99,2.00,32.12,35.34,37.68,13.50,48.34,1012.53,1990.02,2632.26,2539.19,2859.88,599.83,575.73,11.46,0000 0000 0000 0000 000000
2018-08-11 06:13:51,1.25,2.05,2.00,32.16,35.37,37.72,13.44,48.59,1012.53,1990.00,2609.48,2526.75,2843.46,600.05,575.86,11.51,0000 0000 0000 0000 000000
2018-08-11 06:18:52,1.23,2.12,2.00,32.19,35.40,37.74,13.40,48.55,1012.59,1989.98,2587.54,2514.76,2827.70,599.80,575.62,11.56,0000 0000 0000 0000 000000
2018-08-11 06:23:54,1.16,2.18,2.00,32.22,35.43,37.78,13.45,48.84,1012.65,1989.90,2566.81,2503.39,2812.91,599.97,575.86,11.61,0000 0000 0000 0000 000000
2018-08-11 06:28:55,1.05,2.23,1.70,32.25,35.46,37.80,13.48,48.96,1012.68,1989.51,2547.24,2492.66,2798.81,599.74,575.50,11.66,0000 0000 0000 0000 000000
2018-08-11 06:33:56,1.06,2.28,1.00,32.28,35.49,37.84,13.43,48.90,1012.69,1989.06,2528.34,2482.32,2785.26,599.67,575.43,11.71,0000 0000 0000 0000 000000
2018-08-11 06:38:57,1.09,2.34,1.00,32.31,35.51,37.87,13.47,49.02,1012.71,1989.01,2509.62,2472.09,2771.96,600.18,575.83,11.76,0000 0000 0000 0000 000000
2018-08-11 06:43:58,1.13,2.39,1.00,32.34,35.55,37.89,13.35,49.27,1012.70,1989.00,2490.89,2461.67,2758.50,600.04,575.66,11.81,0000 0000 0000 0000 000000
2018-08-11 06:48:59,1.13,2.45,1.00,32.38,35.58,37.92,13.45,49.33,1012.71,1988.90,2471.67,2451.10,2744.92,600.37,575.80,11.86,0000 0000 0000 0000 000000
2018-08-11 06:54:01,1.09,2.51,1.00,32.41,35.61,37.95,13.44,49.48,1012.71,1988.62,2452.76,2440.76,2731.60,600.00,575.48,11.91,0000 0000 0000 0000 000000
2018-08-11 06:59:02,1.04,2.56,1.00,32.43,35.63,37.98,13.44,49.61,1012.71,1988.16,2434.61,2430.80,2718.72,600.08,575.43,11.96,0000 0000 0000 0000 000000
2018-08-11 07:04:03,1.06,2.61,1.00,32.46,35.66,38.01,13.50,49.83,1012.71,1988.01,2417.13,2421.19,2706.36,600.12,575.38,12.01,0000 0000 0000 0000 000000
2018-08-11 07:09:04,1.02,2.66,1.00,32.50,35.69,38.04,13.46,49.94,1012.71,1988.00,2400.41,2411.99,2694.53,600.09,575.37,12.06,0000 0000 0000 0000 000000
2018-08-11 07:14:06,0.96,2.71,1.00,32.53,35.72,38.07,13.48,50.07,1012.71,1988.00,2384.56,2403.27,2683.51,600.32,575.60,12.11,0000 0000 0000 0000 000000
2018-08-11 07:19:07,0.87,2.76,1.00,32.56,35.75,38.10,13.43,50.17,1012.71,1987.98,2370.57,2395.45,2673.65,599.82,575.07,12.16,0000 0000 0000 0000 000000
2018-08-11 07:24:09,0.78,2.80,1.00,32.59,35.78,38.13,13.48,50.36,1012.71,1987.78,2357.68,2388.20,2664.46,600.03,575.19,12.21,0000 0000 0000 0000 000000
2018-08-11 07:29:10,0.74,2.84,1.00,32.62,35.81,38.16,13.35,50.34,1012.71,1987.48,2345.33,2381.25,2655.68,599.71,574.79,12.26,0000 0000 0000 0000 000000
2018-08-11 07:34:11,0.73,2.88,1.00,32.65,35.84,38.19,13.52,50.52,1012.71,1987.06,2333.35,2374.39,2647.13,599.96,574.97,12.31,0000 0000 0000 0000 000000
2018-08-11 07:39:13,0.70,2.91,1.00,32.68,35.87,38.22,13.42,50.48,1012.71,1987.00,2322.25,2368.13,2639.13,600.18,575.20,12.36,0000 0000 0000 0000 000000
2018-08-11 07:44:14,0.82,2.95,1.00,32.72,35.90,38.25,13.44,50.57,1012.71,1987.00,2311.21,2360.84,2630.30,599.87,574.81,12.41,0000 0000 0000 0000 000000
2018-08-11 07:49:15,0.56,2.98,1.00,32.76,35.93,38.28,13.35,50.53,1012.71,1987.00,2302.32,2355.18,2623.49,599.63,574.48,12.46,0000 0000 0000 0000 000000
2018-08-11 07:54:17,0.48,3.01,1.00,32.79,35.96,38.31,13.44,50.63,1012.71,1986.98,2294.90,2350.67,2618.07,600.14,574.84,12.51,0000 0000 0000 0000 000000
2018-08-11 07:59:18,0.46,3.04,1.00,32.82,35.99,38.33,13.38,50.75,1012.71,1986.83,2287.97,2346.51,2612.92,599.83,574.63,12.56,0000 0000 0000 0000 000000
2018-08-11 08:04:20,0.40,3.06,1.00,32.86,36.02,38.36,13.43,50.72,1012.71,1986.30,2281.34,2342.24,2607.81,600.24,574.85,12.61,0000 0000 0000 0000 000000
2018-08-11 08:09:21,0.39,3.08,1.00,32.88,36.05,38.38,13.39,50.73,1012.71,1986.05,2275.49,2338.26,2603.09,599.84,574.38,12.67,0000 0000 0000 0000 000000
2018-08-11 08:14:23,0.43,3.10,1.00,32.91,36.08,38.42,13.46,50.82,1012.72,1986.00,2269.79,2334.64,2598.66,599.97,574.42,12.72,0000 0000 0000 0000 000000
2018-08-11 08:19:24,0.55,3.12,1.00,32.94,36.11,38.45,13.38,50.82,1012.72,1986.00,2263.18,2329.89,2593.06,599.94,574.41,12.77,0000 0000 0000 0000 000000
2018-08-11 08:24:25,0.38,3.15,1.00,32.97,36.14,38.49,13.42,51.08,1012.74,1985.99,2257.13,2325.71,2588.08,599.91,574.33,12.82,0000 0000 0000 0000 000000
2018-08-11 08:29:26,0.34,3.16,0.60,33.00,36.17,38.52,13.49,50.97,1012.76,1985.96,2252.06,2322.67,2584.36,600.02,574.40,12.87,0000 0000 0000 0000 000000
2018-08-11 08:34:27,0.31,3.18,0.00,33.03,36.20,38.54,13.40,50.85,1012.81,1985.69,2247.12,2319.62,2580.66,599.82,574.08,12.92,0000 0000 0000 0000 000000
2018-08-11 08:39:28,0.29,3.20,0.00,33.05,36.23,38.58,13.44,50.91,1012.86,1985.23,2242.32,2316.68,2577.06,600.12,574.40,12.97,0000 0000 0000 0000 000000
2018-08-11 08:44:30,0.29,3.21,0.00,33.07,36.26,38.61,13.37,50.93,1012.91,1985.04,2238.09,2314.00,2573.78,600.25,574.59,13.02,0000 0000 0000 0000 000000
2018-08-11 08:49:31,0.26,3.22,0.00,33.09,36.29,38.63,13.43,50.97,1013.02,1985.00,2234.17,2311.59,2570.85,600.04,574.41,13.07,0000 0000 0000 0000 000000
2018-08-11 08:54:32,0.28,3.24,0.00,33.12,36.31,38.66,13.38,51.16,1013.10,1985.00,2230.23,2309.19,2567.94,599.86,574.26,13.12,0000 0000 0000 0000 000000
2018-08-11 08:59:33,0.25,3.25,0.00,33.14,36.34,38.69,13.45,51.24,1013.13,1984.99,2226.68,2306.97,2565.26,599.84,574.26,13.17,0000 0000 0000 0000 000000
2018-08-11 09:04:34,0.46,3.27,0.00,33.16,36.37,38.72,13.48,51.14,1013.17,1984.90,2221.65,2302.78,2560.40,600.10,574.42,13.22,0000 0000 0000 0000 000000
2018-08-11 09:09:35,0.22,3.29,0.00,33.19,36.40,38.74,13.36,51.04,1013.20,1984.59,2217.63,2299.91,2557.21,599.85,574.13,13.27,0000 0000 0000 0000 000000
2018-08-11 09:14:37,0.22,3.30,0.00,33.21,36.43,38.78,13.45,51.09,1013.20,1984.23,2214.03,2297.69,2554.49,600.10,574.27,13.32,0000 0000 0000 0000 000000
2018-08-11 09:19:38,0.30,3.31,0.00,33.23,36.46,38.81,13.40,51.19,1013.20,1984.04,2209.82,2295.13,2551.33,599.74,573.85,13.37,0000 0000 0000 0000 000000
2018-08-11 09:24:40,0.30,3.33,0.00,33.25,36.49,38.83,13.45,51.33,1013.20,1984.00,2205.42,2292.47,2548.12,600.32,574.47,13.42,0000 0000 0000 0000 000000
2018-08-11 09:29:41,0.29,3.34,0.00,33.27,36.51,38.85,13.48,51.24,1013.21,1984.00,2201.43,2290.04,2545.17,600.24,574.36,13.47,0000 0000 0000 0000 000000
2018-08-11 09:34:41,0.30,3.36,0.00,33.28,36.54,38.89,13.43,51.17,1013.21,1984.00,2197.39,2287.39,2542.06,600.04,574.19,13.52,0000 0000 0000 0000 000000
2018-08-11 09:39:43,0.37,3.38,0.00,33.30,36.57,38.91,13.43,51.29,1013.21,1983.98,2192.75,2284.20,2538.37,600.05,574.03,13.57,0000 0000 0000 0000 000000
2018-08-11 09:44:44,0.25,3.39,0.00,33.30,36.59,38.93,13.47,51.32,1013.21,1983.90,2188.93,2281.54,2535.31,599.85,574.00,13.62,0000 0000 0000 0000 000000
2018-08-11 09:49:45,0.30,3.40,0.00,33.31,36.62,38.97,13.47,51.39,1013.20,1983.80,2185.06,2278.94,2532.28,600.10,574.15,13.67,0000 0000 0000 0000 000000
2018-08-11 09:54:46,0.29,3.42,0.00,33.32,36.64,38.99,13.44,51.38,1013.21,1983.41,2180.73,2275.90,2528.85,599.97,573.93,13.72,0000 0000 0000 0000 000000
2018-08-11 09:59:47,0.34,3.43,0.00,33.32,36.66,39.01,13.45,51.30,1013.22,1983.06,2176.04,2272.66,2525.00,599.93,573.94,13.77,0000 0000 0000 0000 000000
2018-08-11 10:04:49,0.30,3.45,0.00,33.32,36.68,39.03,13.43,51.27,1013.23,1983.00,2171.89,2269.88,2521.79,599.81,573.93,13.82,0000 0000 0000 0000 000000
2018-08-11 10:09:50,0.30,3.47,0.00,33.32,36.70,39.05,13.42,51.33,1013.23,1983.00,2167.89,2267.31,2518.77,600.00,574.04,13.87,0000 0000 0000 0000 000000
2018-08-11 10:14:51,0.36,3.48,0.00,33.32,36.72,39.06,13.47,51.52,1013.47,1983.00,2163.20,2264.54,2515.25,600.00,574.18,13.92,0000 0000 0000 0000 000000
2018-08-11 10:19:52,0.41,3.50,0.00,33.32,36.73,39.08,13.46,51.58,1013.58,1983.00,2157.78,2261.32,2511.38,599.95,574.10,13.97,0000 0000 0000 0000 000000
2018-08-11 10:24:53,0.46,3.52,0.00,33.32,36.75,39.09,13.46,51.69,1013.62,1982.93,2151.71,2257.58,2506.82,600.31,574.45,14.02,0000 0000 0000 0000 000000
2018-08-11 10:29:54,0.50,3.55,0.00,33.32,36.77,39.09,13.40,51.58,1013.63,1982.82,2145.09,2253.33,2501.82,599.67,574.08,14.07,0000 0000 0000 0000 000000
2018-08-11 10:34:55,0.56,3.58,0.00,33.33,36.78,39.10,13.40,51.66,1013.61,1982.66,2138.18,2248.42,2496.28,599.68,573.91,14.12,0000 0000 0000 0000 000000
2018-08-11 10:39:57,0.60,3.61,0.00,33.35,36.80,39.12,13.47,51.67,1013.67,1982.44,2130.90,2242.64,2489.91,600.19,574.45,14.17,0000 0000 0000 0000 000000
2018-08-11 10:44:58,0.59,3.64,0.00,33.35,36.82,39.13,13.41,51.77,1013.69,1982.19,2123.80,2237.08,2483.48,599.83,574.12,14.22,0000 0000 0000 0000 000000
2018-08-11 10:50:00,0.60,3.67,0.00,33.37,36.83,39.14,13.52,52.01,1013.69,1982.05,2116.97,2231.31,2477.06,600.17,574.31,14.27,0000 0000 0000 0000 000000
2018-08-11 10:55:01,0.57,3.70,0.00,33.38,36.85,39.16,13.43,51.98,1013.69,1982.01,2110.58,2225.94,2471.07,599.89,574.05,14.32,0000 0000 0000 0000 000000
2018-08-11 11:00:02,0.49,3.72,0.53,33.40,36.87,39.20,13.45,52.13,1013.69,1982.00,2104.81,2221.40,2465.85,599.89,574.03,14.37,0000 0000 0000 0000 000000
2018-08-11 11:05:03,0.36,3.74,1.00,33.41,36.88,39.20,13.45,52.06,1013.69,1982.00,2100.06,2217.88,2461.83,599.91,574.13,14.42,0000 0000 0000 0000 000000
2018-08-11 11:10:05,0.31,3.76,1.00,33.44,36.90,39.22,13.43,52.21,1013.69,1982.00,2096.24,2215.17,2458.66,599.87,573.97,14.47,0000 0000 0000 0000 000000
2018-08-11 11:15:06,0.26,3.78,1.00,33.46,36.92,39.25,13.38,52.07,1013.69,1982.00,2092.90,2212.86,2456.01,599.92,573.98,14.52,0000 0000 0000 0000 000000
2018-08-11 11:20:07,0.26,3.79,1.00,33.47,36.93,39.27,13.39,52.08,1013.69,1981.98,2089.75,2210.57,2453.35,599.81,573.86,14.57,0000 0000 0000 0000 000000
2018-08-11 11:25:08,0.30,3.80,1.00,33.47,36.95,39.29,13.38,52.03,1013.69,1981.92,2086.30,2207.93,2450.40,599.73,573.68,14.62,0000 0000 0000 0000 000000
2018-08-11 11:30:10,0.30,3.82,0.43,33.49,36.95,39.31,13.42,52.06,1013.69,1981.83,2082.87,2205.19,2447.30,600.00,573.96,14.67,0000 0000 0000 0000 000000
2018-08-11 11:35:11,0.28,3.84,0.00,33.49,36.97,39.32,13.45,52.28,1013.69,1981.62,2079.37,2202.35,2444.11,600.32,574.30,14.72,0000 0000 0000 0000 000000
2018-08-11 11:40:12,0.30,3.85,0.00,33.48,36.98,39.33,13.37,52.21,1013.69,1981.37,2075.93,2199.48,2440.83,599.80,573.91,14.77,0000 0000 0000 0000 000000
2018-08-11 11:45:13,0.28,3.87,0.00,33.47,36.99,39.34,13.44,52.21,1013.69,1981.09,2072.41,2196.61,2437.58,600.17,574.19,14.82,0000 0000 0000 0000 000000
2018-08-11 11:50:15,0.32,3.88,0.00,33.45,37.00,39.36,13.54,52.17,1013.69,1981.00,2068.82,2193.94,2434.48,600.46,574.50,14.87,0000 0000 0000 0000 000000
2018-08-11 11:55:16,0.34,3.90,0.00,33.43,37.00,39.36,13.54,52.34,1013.70,1981.00,2065.01,2190.95,2431.21,600.32,574.38,14.92,0000 0000 0000 0000 000000
2018-08-11 12:00:17,0.33,3.91,0.00,33.41,37.00,39.37,13.37,52.29,1013.69,1981.00,2061.35,2187.97,2427.85,599.65,573.81,14.98,0000 0000 0000 0000 000000
2018-08-11 12:05:18,0.32,3.93,0.00,33.37,37.00,39.38,13.42,52.30,1013.69,1981.00,2057.82,2185.16,2424.62,599.77,574.01,15.03,0000 0000 0000 0000 000000
2018-08-11 12:10:20,0.31,3.95,0.00,33.34,37.00,39.38,13.42,52.30,1013.69,1981.00,2054.29,2182.43,2421.54,599.99,574.31,15.08,0000 0000 0000 0000 000000
2018-08-11 12:15:21,0.28,3.96,0.00,33.29,37.00,39.38,13.51,52.38,1013.69,1981.00,2050.98,2179.94,2418.67,600.09,574.48,15.13,0000 0000 0000 0000 000000
2018-08-11 12:20:22,0.27,3.98,0.00,33.26,37.00,39.38,13.48,52.60,1013.70,1981.00,2048.03,2177.52,2415.94,599.67,574.28,15.18,0000 0000 0000 0000 000000
2018-08-11 12:25:23,0.28,3.99,0.00,33.22,37.00,39.38,13.42,52.52,1013.70,1981.00,2045.17,2175.07,2413.02,599.83,574.27,15.23,0000 0000 0000 0000 000000
2018-08-11 12:30:24,0.28,4.01,0.00,33.19,37.00,39.38,13.50,52.48,1013.71,1981.00,2041.96,2172.71,2410.27,599.97,574.57,15.28,0000 0000 0000 0000 000000
2018-08-11 12:35:26,0.22,4.02,0.00,33.16,36.99,39.38,13.48,52.54,1013.72,1981.01,2039.40,2170.74,2408.11,599.91,574.53,15.33,0000 0000 0000 0000 000000
2018-08-11 12:40:27,0.24,4.03,0.00,33.14,36.98,39.39,13.53,52.65,1013.70,1981.01,2036.84,2168.76,2405.84,600.04,574.72,15.38,0000 0000 0000 0000 000000
2018-08-11 12:45:28,0.23,4.04,0.00,33.11,36.98,39.38,13.54,52.55,1013.69,1981.00,2034.41,2166.79,2403.55,599.81,574.54,15.43,0000 0000 0000 0000 000000
2018-08-11 12:50:30,0.29,4.05,0.00,33.09,36.96,39.37,13.46,52.64,1013.70,1981.03,2031.33,2164.39,2400.87,599.51,574.21,15.48,0000 0000 0000 0000 000000
2018-08-11 12:55:31,0.27,4.07,0.00,33.06,36.95,39.35,13.50,52.72,1013.70,1981.01,2028.39,2162.05,2398.12,600.02,574.82,15.53,0000 0000 0000 0000 000000